Header for Extended Forecast Station List Page

Search by: ID | Name | Date | Parm | Value | Avg | % Avg
Sort by: ID | Name | Date | Parm | Value | Avg | % Avg

Enter search or view all records.

Click on id for station plot
#IDNameDateParmValueAvg% Avg
0HWRI1BIG LOST-AT HOWELL RANCH NEAR CHILLY11-22-2021DISCHARGE (KAF)151885
1MACI1BIG LOST-MACKAY RESERVOIR NEAR MACKAY11-22-2021INFLOW (KAF)283973
2HALI1BIG WOOD-AT HAILEY11-22-2021DISCHARGE (KAF)253768
3MAGI1BIG WOOD-MAGIC DAM11-22-2021INFLOW (KAF)112542
4BITM8BITTERROOT-NEAR MISSOULA11-22-2021DISCHARGE (KAF)18820592
5BONM8BLACKFOOT-NEAR BONNER11-22-2021DISCHARGE (KAF)157136115
6BIGI1BOISE-AT GLENWOOD BRIDGE11-22-2021DISCHARGE (KAF)11564179
7LUCI1BOISE-LUCKY PEAK DAM11-22-2021INFLOW (KAF)13916485
8PARI1BOISE-NEAR PARMA11-22-2021DISCHARGE (KAF)273204134
9HOTI1BRUNEAU-NEAR HOT SPRINGS11-22-2021DISCHARGE (KAF)193062
10BULO3BULLY CREEK-BULLY CREEK DAM11-22-2021INFLOW (KAF)284682
11BUDW1BUMPING-BUMPING LAKE DAM11-22-2021INFLOW (KAF)4540113
12CHDW1CHELAN-LAKE CHELAN DAM11-22-2021INFLOW (KAF)395197200
13ABOM8CLARK FORK-ABOVE MISSOULA11-22-2021DISCHARGE (KAF)331328101
14DLGM8CLARK FORK-AT DEER LODGE11-22-2021DISCHARGE (KAF)465190
15SRGM8CLARK FORK-AT ST REGIS11-22-2021DISCHARGE (KAF)63772588
16BELM8CLARK FORK-BELOW MISSOULA11-22-2021DISCHARGE (KAF)52054296
17CABI1CLARK FORK-CABINET GORGE DAM11-22-2021INFLOW (KAF)3207354890
18NOXM8CLARK FORK-NOXON RAPIDS DAM11-22-2021INFLOW (KAF)2941311295
19DRMM8CLARK FORK-NR DRUMMOND11-22-2021DISCHARGE (KAF)10912488
20CLUW1CLE ELUM-CLE ELUM LAKE11-22-2021INFLOW (KAF)149115130
21ORFI1CLEARWATER-AT OROFINO11-22-2021DISCHARGE (KAF)53891959
22SPDI1CLEARWATER-AT SPALDING11-22-2021DISCHARGE (KAF)1071173062
23COEI1COEUR D ALENE-COEUR D ALENE LAKE11-22-2021INFLOW (KAF)751110068
24CIBW1COLUMBIA-AT INTL BOUNDARY11-22-2021DISCHARGE (KAF)2210619958111
25BONO3COLUMBIA-BONNEVILLE DAM11-22-2021INFLOW (KAF)369053775898
26CHJW1COLUMBIA-CHIEF JOSEPH DAM11-22-2021INFLOW (KAF)2547823785107
27GCDW1COLUMBIA-GRAND COULEE DAM11-22-2021INFLOW (KAF)2327221578108
28JDAO3COLUMBIA-JOHN DAY DAM11-22-2021INFLOW (KAF)351833548199
29MCDW1COLUMBIA-MCNARY DAM11-22-2021INFLOW (KAF)337273397699
30PRWW1COLUMBIA-PRIEST RAPIDS DAM11-22-2021INFLOW (KAF)2739025508107
31RRHW1COLUMBIA-ROCKY REACH DAM11-22-2021INFLOW (KAF)2683424822108
32TDAO3COLUMBIA-THE DALLES DAM11-22-2021INFLOW (KAF)358563607399
33WANW1COLUMBIA-WANAPUM DAM11-22-2021INFLOW (KAF)2740125433108
34WELW1COLUMBIA-WELLS DAM11-22-2021INFLOW (KAF)2606324415107
35DEDI1DEADWOOD-NEAR LOWMAN11-22-2021INFLOW (KAF)141875
36MODO3DESCHUTES-AT MOODY NR BIGGS11-22-2021DISCHARGE (KAF)14241399102
37ARDW1ENTIAT-NEAR ARDENVOIR11-22-2021DISCHARGE (KAF)4525178
38CHEI1FALL RIVER-NEAR CHESTER11-22-2021DISCHARGE (KAF)10111489
39CFMM8FLATHEAD-AT COLUMBIA FALLS11-22-2021DISCHARGE (KAF)1040944110
40KERM8FLATHEAD-SELI’Š KSANKA QLISPE’ DAM11-22-2021INFLOW (KAF)1186139385
41TRYO3GRANDE RONDE-TROY11-22-2021DISCHARGE (KAF)28745363
42REXI1HENRYS FORK-AT REXBURG11-22-2021DISCHARGE (KAF)37743587
43ANTI1HENRYS FORK-AT ST. ANTHONY11-22-2021DISCHARGE (KAF)31537883
44IPDI1HENRYS FORK-ISLAND PARK DAM11-22-2021INFLOW (KAF)7810575
45HODO3HOOD-NEAR TUCKER BRIDGE11-22-2021DISCHARGE (KAF)290244119
46SERO3JOHN DAY-AT SERVICE CK11-22-2021DISCHARGE (KAF)18832258
47KADW1KACHESS-KACHESS DAM11-22-2021INFLOW (KAF)5951117
48LAUW1KETTLE-AT LAURIER11-22-2021DISCHARGE (KAF)11413783
49PITW1KLICKITAT-NEAR PITT11-22-2021DISCHARGE (KAF)448357126
50BFEI1KOOTENAI-AT BONNERS FERRY11-22-2021STAGE (FT)MMM
51LEOI1KOOTENAI-AT LEONIA11-22-2021DISCHARGE (KAF)31422481127
52LYDM8KOOTENAI-LIBBY DAM11-22-2021INFLOW (KAF)1090836130
53LWRI1LITTLE WOOD-LITTLE WOOD DAM11-22-2021INFLOW (KAF)1614115
54BERO3MALHEUR-AGENCY VALLEY DAM11-22-2021INFLOW (KAF)132165
55WRMO3MALHEUR-WARM SPRINGS DAM11-22-2021INFLOW (KAF)253571
56MYKO3MCKAY CREEK-NEAR PILOT ROCK11-22-2021DISCHARGE (KAF)3731120
57PATW1METHOW-NEAR PATEROS11-22-2021DISCHARGE (KAF)142105136
58WGCM8MF FLATHEAD-NEAR WEST GLACIER11-22-2021DISCHARGE (KAF)215155139
59CLFW1NACHES-NEAR CLIFFDEL11-22-2021DISCHARGE (KAF)12512898
60NACW1NACHES-NEAR NACHES11-22-2021DISCHARGE (KAF)13017276
61DWRI1NF CLEARWATER-DWORSHAK DAM11-22-2021INFLOW (KAF)48073565
62FCFM8NF FLATHEAD-NEAR COLUMBIA FALLS11-22-2021DISCHARGE (KAF)341174196
63MONO3NF JOHN DAY-AT MONUMENT11-22-2021DISCHARGE (KAF)10920254
64CSDI1NF PAYETTE-CASCADE DAM11-22-2021INFLOW (KAF)779978
65TONW1OKANOGAN-NEAR TONASKET11-22-2021DISCHARGE (KAF)460305151
66OWYO3OWYHEE-OWYHEE DAM11-22-2021INFLOW (KAF)230136169
67EMMI1PAYETTE-NEAR EMMETT11-22-2021DISCHARGE (KAF)31533394
68ALFW1PEND OREILLE-ALBENI FALLS DAM11-22-2021INFLOW (KAF)3493399487
69HOPI1PEND OREILLE-PEND OREILLE LAKE NR HOPE11-22-2021LAKE ELEVATION (FT)MMM
70PIHI1PORTNEUF-AT POCATELLO11-22-2021DISCHARGE (KAF)385370
71PRTI1PRIEST-NEAR PRIEST RIVER11-22-2021DISCHARGE (KAF)16122970
72RCCM8ROCK CREEK-NEAR CLINTON11-22-2021DISCHARGE (KAF)5245115
73WHBI1SALMON-AT WHITEBIRD11-22-2021DISCHARGE (KAF)920103989
74ARAI1SF BOISE-ANDERSON RANCH DAM11-22-2021INFLOW (KAF)697987
75HHWM8SF FLATHEAD-HUNGRY HORSE DAM11-22-2021INFLOW (KAF)258238108
76PLDI1SF SNAKE-PALISADES DAM11-22-2021INFLOW (KAF)47158081
77SIFI1SNAKE-AB EAGLE ROCK NR IDAHO FALLS11-22-2021DISCHARGE (KAF)56467184
78AFRI1SNAKE-AMERICAN FALLS RESERVOIR11-22-2021INFLOW (KAF)1117119693
79SNAI1SNAKE-AT BLACKFOOT11-22-2021DISCHARGE (KAF)46959179
80MILI1SNAKE-AT MILNER11-22-2021DISCHARGE (KAF)M55M
81WEII1SNAKE-AT WEISER11-22-2021DISCHARGE (KAF)2729291394
82SWAI1SNAKE-BELOW SWAN FALLS11-22-2021DISCHARGE (KAF)1710187491
83BRNI1SNAKE-BROWNLEE DAM11-22-2021INFLOW (KAF)2966313195
84IHDW1SNAKE-ICE HARBOR DAM11-22-2021INFLOW (KAF)5535727076
85JLKW4SNAKE-JACKSON LAKE AT DAM11-22-2021INFLOW (KAF)9311581
86LGSW1SNAKE-LITTLE GOOSE DAM11-22-2021INFLOW (KAF)5283712474
87LGDW1SNAKE-LOWER GRANITE DAM11-22-2021INFLOW (KAF)5283709075
88LMNW1SNAKE-LOWER MONUMENTAL DAM11-22-2021INFLOW (KAF)5535724276
89ALPW4SNAKE-NEAR ALPINE11-22-2021DISCHARGE (KAF)30737582
90ANAW1SNAKE-NEAR ANATONE11-22-2021DISCHARGE (KAF)4212530479
91BFTI1SNAKE-NEAR BLACKFOOT11-22-2021DISCHARGE (KAF)47257982
92HEII1SNAKE-NEAR HEISE11-22-2021DISCHARGE (KAF)35137893
93JKSW4SNAKE-NEAR JACKSON11-22-2021DISCHARGE (KAF)24531478
94SHYI1SNAKE-NEAR SHELLEY11-22-2021DISCHARGE (KAF)54467681
95LLKW1SPOKANE-AT LONGLAKE11-22-2021INFLOW (KAF)1016147869
96SPOW1SPOKANE-AT SPOKANE11-22-2021DISCHARGE (KAF)748122861
97SJMI1ST JOE-AT ST MARIES11-22-2021STAGE (FT)MMM
98SATI1ST MARIES-NEAR SANTA11-22-2021DISCHARGE (KAF)216334
99STRM8ST. REGIS-NEAR ST. REGIS11-22-2021DISCHARGE (KAF)234352
100TNAW1TEANAWAY-BELOW FORKS11-22-2021DISCHARGE (KAF)6555118
101TEAI1TETON-NEAR ST. ANTHONY11-22-2021DISCHARGE (KAF)769679
102RILW1TIETON-RIMROCK LAKE NEAR RIMROCK11-22-2021INFLOW (KAF)8075106
103PDTO3UMATILLA-AT PENDLETON11-22-2021DISCHARGE (KAF)11413088
104GIBO3UMATILLA-NEAR GIBBON11-22-2021DISCHARGE (KAF)445186
105UMAO3UMATILLA-NEAR UMATILLA11-22-2021DISCHARGE (KAF)129122105
106TCHW1WALLA WALLA-NEAR TOUCHET11-22-2021DISCHARGE (KAF)13118670
107WSRI1WEISER-NEAR WEISER11-22-2021DISCHARGE (KAF)15816695
108PESW1WENATCHEE-AT PESHASTIN11-22-2021DISCHARGE (KAF)508334152
109UNDW1WHITE SALMON-NEAR UNDERWOOD11-22-2021DISCHARGE (KAF)309276112
110RIDI1WILLOW CREEK-RIRIE DAM11-22-2021INFLOW (KAF)81365
111EASW1YAKIMA-AT EASTON11-22-2021DISCHARGE (KAF)727991
112KIOW1YAKIMA-AT KIONA11-22-2021DISCHARGE (KAF)73480791
113UMTW1YAKIMA-AT UMTANUM11-22-2021DISCHARGE (KAF)30032891
114KEDW1YAKIMA-KEECHELUS LAKE11-22-2021INFLOW (KAF)6053114
115PARW1YAKIMA-NEAR PARKER11-22-2021DISCHARGE (KAF)54156596